Home   Weather   Cairns   Past weeks

Flag for Australia Past Weather in Cairns, Queensland, Australia — Yesterday and Last 2 Weeks

Now
82 °F

Partly sunny.


Feels Like: 88 °F
Forecast: 78 / 90 °F
Wind: 9 mph from South

Location: Cairns Airport

Current Time: Jan 24, 2017 at 9:10:04 am

Latest Report: Jan 24, 2017 at 8:00 am


Visibility: N/A

Pressure: 29.89 "Hg

Humidity: 74%

Dew Point: 73 °F

Location of CairnsLocation

Past Weather in Cairns — Graph

°F

Cairns Temperature Yesterday

Maximum temperature yesterday: 91 °F (at 1:00 pm)
Minimum temperature yesterday: 79 °F (at 3:00 am)
Average temperature yesterday: 84 °F

High & Low Weather Summary for the Past Weeks

 TemperatureHumidityPressure
High91 °F (Jan 23, 1:00 pm)100% (Jan 10, 5:30 pm)29.92 "Hg (Jan 10, 5:30 pm)
Low73 °F (Jan 16, 4:00 am)52% (Jan 23, 2:00 pm)29.65 "Hg (Jan 9, 2:30 pm)
Average82 °F84%29.78 "Hg
* Reported Jan 9 8:00 am — Jan 24 8:00 am, Cairns, Weather by CustomWeather, © 2017

Note: Actual official high and low records may vary slightly from our data, if they occured in-between our weather recording intervals... More about our weather records

Advertising

Cairns Weather History for the Previous 24 Hours

Scroll right to see more
 ConditionsComfort  
Time TempWeatherWind HumidityBarometerVisibility
8:00 am
Tue, Jan 24
82 °FPartly sunny.9 mph74%29.89 "HgN/A
7:30 am84 °FPartly sunny.9 mph74%29.89 "HgN/A
7:00 am81 °FPartly sunny.6 mph79%29.89 "HgN/A
6:30 am79 °FPartly sunny.8 mph84%29.86 "HgN/A
6:00 am77 °FPassing clouds.9 mph89%29.86 "HgN/A
5:30 am77 °FPassing clouds.9 mph89%29.83 "HgN/A
5:00 am79 °FPassing clouds.3 mph79%29.83 "HgN/A
4:30 am79 °FPassing clouds.9 mph84%29.83 "HgN/A
4:00 am77 °FPassing clouds.12 mph89%29.83 "HgN/A
3:30 am79 °FPassing clouds.7 mph84%29.83 "HgN/A
3:00 am81 °FPassing clouds.6 mph79%29.83 "HgN/A
2:30 am79 °FPassing clouds.7 mph84%29.83 "HgN/A
2:00 am81 °FPassing clouds.9 mph79%29.83 "HgN/A
1:30 am79 °FPassing clouds.8 mph84%29.83 "HgN/A
1:00 am79 °FPassing clouds.10 mph84%29.86 "HgN/A
12:30 am79 °FPassing clouds.7 mph84%29.86 "HgN/A
12:00 am81 °FPassing clouds.2 mph79%29.89 "HgN/A
11:30 pm
Mon, Jan 23
81 °FPassing clouds.8 mph79%29.89 "HgN/A
11:00 pm81 °FPassing clouds.5 mph79%29.89 "HgN/A
10:30 pm81 °FPassing clouds.6 mph79%29.89 "HgN/A
10:00 pm81 °FPassing clouds.1 mph79%29.89 "HgN/A
9:30 pm82 °FPassing clouds.3 mph74%29.86 "HgN/A
9:00 pm81 °FPassing clouds.6 mph79%29.86 "HgN/A
8:30 pm82 °FPassing clouds.6 mph74%29.86 "HgN/A
8:00 pm82 °FPassing clouds.6 mph74%29.86 "HgN/A
7:30 pm84 °FPassing clouds.12 mph70%29.86 "HgN/A
7:00 pm84 °FPassing clouds.12 mph70%29.83 "HgN/A
6:30 pm86 °FPassing clouds.10 mph66%29.83 "HgN/A
6:00 pm86 °FPassing clouds.15 mph62%29.80 "HgN/A
5:30 pm88 °FPassing clouds.15 mph59%29.80 "HgN/A
5:00 pm88 °FPassing clouds.16 mph59%29.80 "HgN/A
4:30 pm90 °FPassing clouds.15 mph59%29.80 "HgN/A
4:00 pm90 °FPassing clouds.14 mph55%29.77 "HgN/A
3:30 pm91 °FPassing clouds.14 mph56%29.80 "HgN/A
3:00 pm91 °FPassing clouds.16 mph59%29.80 "HgN/A
2:30 pm91 °FPassing clouds.14 mph52%29.80 "HgN/A
2:00 pm91 °FPassing clouds.10 mph52%29.80 "HgN/A
1:30 pm90 °FPassing clouds.15 mph59%29.80 "HgN/A
1:00 pm91 °FPassing clouds.14 mph59%29.83 "HgN/A
12:30 pm90 °FPassing clouds.15 mph63%29.83 "HgN/A
12:00 pm90 °FPassing clouds.17 mph59%29.83 "HgN/A
11:30 am90 °FPassing clouds.15 mph63%29.83 "HgN/A
11:00 am90 °FScattered clouds.15 mph67%29.86 "HgN/A
10:30 am90 °FScattered clouds.12 mph67%29.86 "HgN/A
10:00 am88 °FScattered clouds.10 mph66%29.86 "HgN/A
9:30 am88 °FScattered clouds.10 mph66%29.86 "HgN/A
9:00 am86 °FScattered showers. Scattered clouds.8 mph70%29.86 "HgN/A
Weather by CustomWeather, © 2017

See weather overviewHow to use our weather pages